"Pseudo-MPEC" for C16JGE5

Created 2025 Oct 18 1:35:07 UT using Find_Orb

Click here for an explanation of pseudo-MPECs

 
 Astrometry: 
     C16JGE5* C2025 10 16.28712600 23 42.716+05 25 00.70   ~AG85       VNEOCPV00
     C16JGE5  C2025 10 16.29354800 23 42.410+05 24 40.25   ~AG85 22.24GVNEOCPV00
     C16JGE5  C2025 10 16.29913000 23 42.122+05 24 23.18   ~AG85 22.33GVNEOCPV00
     C16JGE5  C2025 10 16.30470800 23 41.838+05 24 05.76   ~AG85       VNEOCPV00
     C16JGE5 KC2025 10 17.14892600 23 06.34 +04 40 24.3    ~AH45 22.4 GVNEOCPH21
     C16JGE5 KC2025 10 17.15179500 23 06.24 +04 40 15.4    ~AH45 22.4 GVNEOCPH21
     C16JGE5 KC2025 10 17.15571400 23 06.06 +04 40 03.4    ~AH45 22.7 GVNEOCPH21
     C16JGE5  C2025 10 17.16707000 23 05.800+04 39 29.40   ~AH4o 22.2 RVNEOCP291
     C16JGE5  C2025 10 17.17341000 23 05.500+04 39 09.90   ~AH4o 22.1 RVNEOCP291
     C16JGE5  C2025 10 17.17976000 23 05.190+04 38 50.10   ~AH4o 22.3 RVNEOCP291

Station data:
(291) LPL/Spacewatch II  (N31.961669 W111.599905)  US/Arizona.  Observers J.
   V. Scotti, R. S. McMillan. 1.8-m f/2.7 reflector + CCD.
(H21) Astronomical Research Observatory, Westfield  (N39.483054 W87.968270)
   US/Illinois.  Observer R. Holmes. Measurers S. Foglia, L. Buzzi, T.
   Linder, R. Holmes. 0.40-m f/5.32 astrograph + CCD.
(V00) Kitt Peak-Bok  (N31.963125 W111.600190)  US/Arizona. Measurers T.
   Beuden, V. F. Carvajal, D. Fay, J. B. Fazekas, D. C. Fuls, A. R. Gibbs, A.
   D. Grauer, H. Gröller, J. K. Hogan, R. A. Kowalski, S. M. Larson, G. J.
   Leonard, D. Rankin, R. L. Seaman, F. C. Shelly, K. W. Wierzchoś. 2.25-m
   reflector + 4x4K mosaic CCD.

Orbital elements:  C16JGE5
   Perihelion 2025 Jun 7.361804 +/- 123 TT =  8:40:59.8 (JD 2460833.861804)
Epoch 2025 Oct 17.0 TT = JDT 2460965.5   Earth MOID: 0.5523   Ma: 0.0465
M  39.402665333 +/- 54              (J2000 ecliptic)             AutoNEOCP
n   0.299325472 +/- 0.171           Peri.   87.390832 +/- 70
a   2.213299900 +/- 0.842           Node   197.307018 +/- 1.3
e   0.46729305 +/- 0.216            Incl.   46.515742 +/- 11
P   3.29276                H 21.40  G  0.15   U 11.6  SR
q 1.179040231 +/- 0.26    Q 3.247559570 +/- 2.41
From 10 observations 2025 Oct. 16-17 (21.4 hr); mean residual 0".26
Residuals in arcseconds: 
251016 V00  .25+  .04-    251017 H21  .16-  .31+    251017 291  .07-  .16-    
251016 V00  .24+  .33-    251017 H21  .28+  .21+    251017 291  .43-  .49-    
251016 V00  .11-  .13+    251017 H21  .23+  .24+    
251016 V00  .40-  .22+    251017 291  .16+  .09-    

Ephemerides (geocentric):
Date (UTC) HH   RA             Dec           delta  r     elong  mag " sig PA
---- --------  ------------   ------------  ------ ------ -----  --- --------
2025 10 18 02  00 22 28.437   +03 53 17.83  .78063 1.7556 162.1 22.7 32.4 169
2025 10 18 03  00 22 26.800   +03 51 13.19  .78105 1.7559 162.0 22.7 34.6 169
2025 10 18 04  00 22 25.167   +03 49 08.69  .78146 1.7561 161.9 22.7 36.9 169
2025 10 18 05  00 22 23.539   +03 47 04.33  .78188 1.7564 161.9 22.7 39.3 169
2025 10 18 06  00 22 21.914   +03 45 00.12  .78229 1.7566 161.8 22.7 41.8 169
2025 10 18 07  00 22 20.293   +03 42 56.05  .78271 1.7569 161.8 22.7 44.3 169
2025 10 18 08  00 22 18.676   +03 40 52.12  .78312 1.7572 161.7 22.7 46.9 169
2025 10 18 09  00 22 17.063   +03 38 48.34  .78354 1.7574 161.6 22.8 49.5 169
2025 10 18 10  00 22 15.455   +03 36 44.69  .78396 1.7577 161.6 22.8 52.3 169
2025 10 18 11  00 22 13.850   +03 34 41.20  .78438 1.7579 161.5 22.8 55.1 169
2025 10 18 12  00 22 12.249   +03 32 37.84  .78479 1.7582 161.5 22.8 57.9 169
2025 10 18 13  00 22 10.653   +03 30 34.63  .78521 1.7584 161.4 22.8 60.8 169
2025 10 18 14  00 22 09.060   +03 28 31.57  .78563 1.7587 161.3 22.8 63.8 169
2025 10 18 15  00 22 07.472   +03 26 28.65  .78606 1.7589 161.3 22.8 66.9 169
2025 10 18 16  00 22 05.887   +03 24 25.87  .78648 1.7592 161.2 22.8 70.0 169
2025 10 18 17  00 22 04.307   +03 22 23.23  .78690 1.7594 161.2 22.8 73.2 169
2025 10 18 18  00 22 02.730   +03 20 20.74  .78732 1.7597 161.1 22.8 76.4 169
2025 10 18 19  00 22 01.158   +03 18 18.40  .78774 1.7600 161.0 22.8 79.8 169
2025 10 18 20  00 21 59.589   +03 16 16.20  .78817 1.7602 161.0 22.8 83.2 169
2025 10 18 21  00 21 58.025   +03 14 14.14  .78859 1.7605 160.9 22.8 86.6 169
2025 10 18 22  00 21 56.465   +03 12 12.23  .78902 1.7607 160.9 22.8 90.1 169
2025 10 18 23  00 21 54.908   +03 10 10.46  .78944 1.7610 160.8 22.8 93.7 169
2025 10 19 00  00 21 53.356   +03 08 08.83  .78987 1.7612 160.7 22.8 97.3 169
2025 10 19 01  00 21 51.808   +03 06 07.35  .79030 1.7615 160.7 22.8  101 169
2025 10 19 02  00 21 50.264   +03 04 06.01  .79073 1.7617 160.6 22.8  105 169
2025 10 19 03  00 21 48.724   +03 02 04.82  .79115 1.7620 160.6 22.8  109 169
2025 10 19 04  00 21 47.188   +03 00 03.78  .79158 1.7622 160.5 22.8  113 169
2025 10 19 05  00 21 45.656   +02 58 02.87  .79201 1.7625 160.4 22.8  117 169
2025 10 19 06  00 21 44.128   +02 56 02.12  .79244 1.7628 160.4 22.8  121 169
2025 10 19 07  00 21 42.604   +02 54 01.50  .79287 1.7630 160.3 22.8  125 169
2025 10 19 08  00 21 41.084   +02 52 01.04  .79330 1.7633 160.3 22.8  129 169
2025 10 19 09  00 21 39.568   +02 50 00.71  .79374 1.7635 160.2 22.8  133 169
2025 10 19 10  00 21 38.056   +02 48 00.53  .79417 1.7638 160.1 22.8  137 169
2025 10 19 11  00 21 36.548   +02 46 00.50  .79460 1.7640 160.1 22.8  142 169
2025 10 19 12  00 21 35.045   +02 44 00.61  .79503 1.7643 160.0 22.8  146 169
2025 10 19 13  00 21 33.545   +02 42 00.87  .79547 1.7645 160.0 22.8  151 169
2025 10 19 14  00 21 32.049   +02 40 01.27  .79590 1.7648 159.9 22.8  155 169
2025 10 19 15  00 21 30.558   +02 38 01.82  .79634 1.7650 159.8 22.8  160 169
2025 10 19 16  00 21 29.070   +02 36 02.51  .79678 1.7653 159.8 22.8  165 169
2025 10 19 17  00 21 27.587   +02 34 03.34  .79721 1.7656 159.7 22.8  169 169
2025 10 19 18  00 21 26.107   +02 32 04.33  .79765 1.7658 159.7 22.8  174 169
2025 10 19 19  00 21 24.632   +02 30 05.45  .79809 1.7661 159.6 22.8  179 169
2025 10 19 20  00 21 23.161   +02 28 06.73  .79853 1.7663 159.6 22.8  184 169
2025 10 19 21  00 21 21.693   +02 26 08.14  .79897 1.7666 159.5 22.8  189 169
2025 10 19 22  00 21 20.230   +02 24 09.71  .79940 1.7668 159.4 22.9  194 169
2025 10 19 23  00 21 18.771   +02 22 11.41  .79985 1.7671 159.4 22.9  199 169
2025 10 20 00  00 21 17.316   +02 20 13.27  .80029 1.7673 159.3 22.9  204 169
2025 10 20 01  00 21 15.864   +02 18 15.27  .80073 1.7676 159.3 22.9  210 169